When you browse on this site, cookies collect data to enhance your experience and personalize the content and advertising you see.
Visit our Privacy Policy to learn more. By continuing to use the site, you agree to this use of cookies and data.
  • In Spain
  • List of Countries
  • For 7 days
  • Water Temperature
  • Satellite Maps
  • Weather Map
  • Weather Widgets
  • user-avatar
    Login

    Hourly Weather Kichevo

    Today, 22 April, Monday

    Time Temperature Precipitation Wind Pressure Humidity
    00:00 +8°C° 0 mm 1 mps 692 mmHg 88%
    01:00 +8°C° 0 mm 1 mps 692 mmHg 90%
    02:00 +7°C° 0 mm 1 mps 692 mmHg 90%
    03:00 +7°C° 0 mm 1 mps 692 mmHg 91%
    04:00 +7°C° 0 mm 1 mps 692 mmHg 92%
    05:00 +8°C° 0 mm 1 mps 692 mmHg 87%
    06:00 +10°C° 0 mm 1 mps 692 mmHg 83%
    07:00 +11°C° 0 mm 1 mps 692 mmHg 79%
    08:00 +13°C° 0 mm 2 mps 692 mmHg 72%
    09:00 +14°C° 0 mm 2 mps 692 mmHg 65%
    10:00 +16°C° 0 mm 2 mps 692 mmHg 59%
    11:00 +16°C° 0 mm 3 mps 692 mmHg 56%
    12:00 +17°C° 0 mm 3 mps 692 mmHg 54%
    13:00 +18°C° 0 mm 3 mps 691 mmHg 52%
    14:00 +17°C° 0.1 mm 3 mps 691 mmHg 55%
    15:00 +17°C° 0.1 mm 3 mps 691 mmHg 57%
    16:00 +17°C° 0.1 mm 3 mps 691 mmHg 60%
    17:00 +14°C° 0.1 mm 3 mps 690 mmHg 67%
    18:00 +13°C° 0.1 mm 3 mps 690 mmHg 75%
    19:00 +12°C° 0.1 mm 2 mps 690 mmHg 83%
    20:00 +12°C° 0.5 mm 2 mps 690 mmHg 86%
    21:00 +10°C° 0.5 mm 2 mps 690 mmHg 90%
    22:00 +10°C° 0.5 mm 2 mps 690 mmHg 94%
    23:00 +9°C° 0.8 mm 2 mps 690 mmHg 94%

    Tomorrow, 23 April, Tuesday

    Time Temperature Precipitation Wind Pressure Humidity
    00:00 +9°C° 0.8 mm 2 mps 690 mmHg 95%
    01:00 +9°C° 0.8 mm 2 mps 690 mmHg 96%
    02:00 +8°C° 0.1 mm 2 mps 690 mmHg 96%
    03:00 +8°C° 0.1 mm 2 mps 690 mmHg 96%
    04:00 +8°C° 0.1 mm 2 mps 689 mmHg 96%
    05:00 +8°C° 0 mm 2 mps 689 mmHg 94%
    06:00 +9°C° 0 mm 2 mps 689 mmHg 92%
    07:00 +9°C° 0 mm 2 mps 689 mmHg 91%
    08:00 +10°C° 0 mm 3 mps 690 mmHg 87%
    09:00 +11°C° 0 mm 3 mps 690 mmHg 82%
    10:00 +12°C° 0 mm 3 mps 690 mmHg 78%
    11:00 +12°C° 0.1 mm 3 mps 690 mmHg 78%
    12:00 +12°C° 0.1 mm 3 mps 690 mmHg 77%
    13:00 +12°C° 0.1 mm 3 mps 690 mmHg 76%
    14:00 +12°C° 0.1 mm 3 mps 690 mmHg 78%
    15:00 +12°C° 0.1 mm 3 mps 690 mmHg 79%
    16:00 +12°C° 0.1 mm 3 mps 690 mmHg 81%
    17:00 +12°C° 0 mm 2 mps 690 mmHg 84%
    18:00 +12°C° 0 mm 2 mps 691 mmHg 87%
    19:00 +10°C° 0 mm 2 mps 691 mmHg 90%
    20:00 +9°C° 0 mm 2 mps 691 mmHg 92%
    21:00 +9°C° 0 mm 2 mps 692 mmHg 94%
    22:00 +9°C° 0 mm 1 mps 692 mmHg 96%
    23:00 +9°C° 0 mm 1 mps 692 mmHg 97%

    Day after tomorrow, 24 April, Wednesday

    Time Temperature Precipitation Wind Pressure Humidity
    00:00 +9°C° 0 mm 1 mps 692 mmHg 97%
    01:00 +9°C° 0 mm 1 mps 692 mmHg 97%
    02:00 +9°C° 0 mm 1 mps 693 mmHg 97%
    03:00 +9°C° 0 mm 1 mps 693 mmHg 96%
    04:00 +9°C° 0 mm 1 mps 693 mmHg 96%
    05:00 +10°C° 0 mm 1 mps 693 mmHg 92%
    06:00 +11°C° 0 mm 1 mps 693 mmHg 89%
    07:00 +11°C° 0 mm 1 mps 693 mmHg 86%
    08:00 +13°C° 0 mm 2 mps 694 mmHg 78%
    09:00 +15°C° 0 mm 2 mps 694 mmHg 70%
    10:00 +17°C° 0 mm 2 mps 694 mmHg 62%
    11:00 +19°C° 0 mm 2 mps 694 mmHg 58%
    12:00 +20°C° 0 mm 3 mps 695 mmHg 53%
    13:00 +21°C° 0 mm 3 mps 695 mmHg 49%
    14:00 +21°C° 0.2 mm 3 mps 694 mmHg 51%
    15:00 +21°C° 0.2 mm 3 mps 694 mmHg 53%
    16:00 +21°C° 0.2 mm 3 mps 694 mmHg 55%
    17:00 +19°C° 0.3 mm 2 mps 694 mmHg 64%
    18:00 +17°C° 0.3 mm 2 mps 694 mmHg 73%
    19:00 +15°C° 0.3 mm 1 mps 694 mmHg 82%
    20:00 +14°C° 0 mm 1 mps 694 mmHg 85%
    21:00 +13°C° 0 mm 1 mps 694 mmHg 88%
    22:00 +12°C° 0 mm 0 mps 695 mmHg 91%
    23:00 +11°C° 0 mm 0 mps 695 mmHg 92%

    25 April, Thursday

    Time Temperature Precipitation Wind Pressure Humidity
    00:00 +12°C° 0 mm 1 mps 694 mmHg 93%
    01:00 +12°C° 0 mm 1 mps 694 mmHg 93%
    02:00 +10°C° 0 mm 0 mps 694 mmHg 93%
    03:00 +10°C° 0 mm 0 mps 694 mmHg 93%
    04:00 +10°C° 0 mm 0 mps 694 mmHg 93%
    05:00 +11°C° 0 mm 0 mps 694 mmHg 89%
    06:00 +13°C° 0 mm 0 mps 695 mmHg 84%
    07:00 +15°C° 0 mm 1 mps 695 mmHg 79%
    08:00 +18°C° 0 mm 1 mps 695 mmHg 72%
    09:00 +20°C° 0 mm 1 mps 696 mmHg 64%
    10:00 +21°C° 0 mm 2 mps 696 mmHg 56%
    11:00 +23°C° 0 mm 2 mps 696 mmHg 53%
    12:00 +23°C° 0 mm 2 mps 696 mmHg 49%
    13:00 +24°C° 0 mm 2 mps 696 mmHg 45%
    14:00 +24°C° 0.2 mm 2 mps 696 mmHg 47%
    15:00 +24°C° 0.2 mm 2 mps 695 mmHg 49%
    16:00 +24°C° 0.2 mm 2 mps 695 mmHg 51%
    17:00 +21°C° 0.7 mm 2 mps 695 mmHg 60%
    18:00 +19°C° 0.7 mm 1 mps 695 mmHg 69%
    19:00 +16°C° 0.7 mm 1 mps 694 mmHg 77%
    20:00 +16°C° 0.2 mm 1 mps 694 mmHg 79%
    21:00 +15°C° 0.2 mm 1 mps 695 mmHg 81%
    22:00 +15°C° 0.2 mm 1 mps 695 mmHg 83%
    23:00 +15°C° 0.3 mm 1 mps 694 mmHg 83%

    26 April, Friday

    Time Temperature Precipitation Wind Pressure Humidity
    00:00 +14°C° 0.3 mm 1 mps 694 mmHg 83%
    01:00 +14°C° 0.3 mm 1 mps 694 mmHg 83%
    02:00 +14°C° 0 mm 1 mps 694 mmHg 83%
    03:00 +13°C° 0 mm 1 mps 694 mmHg 83%
    04:00 +13°C° 0 mm 1 mps 694 mmHg 84%
    05:00 +14°C° 0 mm 1 mps 694 mmHg 79%
    06:00 +15°C° 0 mm 0 mps 694 mmHg 74%
    07:00 +16°C° 0 mm 0 mps 695 mmHg 69%
    08:00 +20°C° 0 mm 1 mps 695 mmHg 62%
    09:00 +22°C° 0 mm 1 mps 695 mmHg 56%
    10:00 +23°C° 0 mm 2 mps 695 mmHg 50%
    11:00 +24°C° 0.1 mm 2 mps 695 mmHg 48%
    12:00 +25°C° 0.1 mm 2 mps 695 mmHg 46%
    13:00 +25°C° 0.1 mm 2 mps 694 mmHg 44%
    14:00 +25°C° 0.2 mm 2 mps 694 mmHg 45%
    15:00 +25°C° 0.2 mm 2 mps 694 mmHg 47%
    16:00 +24°C° 0.2 mm 2 mps 693 mmHg 48%
    17:00 +21°C° 0.1 mm 2 mps 693 mmHg 56%
    18:00 +19°C° 0.1 mm 2 mps 693 mmHg 64%
    19:00 +18°C° 0.1 mm 1 mps 693 mmHg 72%
    20:00 +16°C° 0 mm 1 mps 693 mmHg 76%
    21:00 +15°C° 0 mm 1 mps 693 mmHg 80%
    22:00 +14°C° 0 mm 1 mps 692 mmHg 84%
    23:00 +14°C° 0 mm 1 mps 692 mmHg 83%

    27 April, Saturday

    Time Temperature Precipitation Wind Pressure Humidity
    00:00 +14°C° 0 mm 1 mps 692 mmHg 81%
    01:00 +14°C° 0 mm 1 mps 692 mmHg 80%
    02:00 +13°C° 0 mm 1 mps 691 mmHg 79%
    03:00 +13°C° 0 mm 1 mps 691 mmHg 78%
    04:00 +13°C° 0 mm 1 mps 691 mmHg 77%
    05:00 +14°C° 0 mm 1 mps 691 mmHg 74%
    06:00 +15°C° 0 mm 1 mps 691 mmHg 70%
    07:00 +18°C° 0 mm 1 mps 692 mmHg 66%
    08:00 +18°C° 0 mm 2 mps 692 mmHg 61%
    09:00 +20°C° 0 mm 2 mps 692 mmHg 55%
    10:00 +21°C° 0 mm 3 mps 692 mmHg 50%
    11:00 +21°C° 0 mm 4 mps 692 mmHg 49%
    12:00 +21°C° 0 mm 5 mps 691 mmHg 47%
    13:00 +21°C° 0 mm 6 mps 691 mmHg 46%
    14:00 +21°C° 0 mm 5 mps 691 mmHg 48%
    15:00 +20°C° 0 mm 5 mps 691 mmHg 51%
    16:00 +19°C° 0 mm 4 mps 691 mmHg 53%
    17:00 +17°C° 0.1 mm 3 mps 691 mmHg 63%
    18:00 +14°C° 0.1 mm 3 mps 691 mmHg 72%
    19:00 +13°C° 0.1 mm 2 mps 691 mmHg 81%
    20:00 +12°C° 0 mm 2 mps 692 mmHg 83%
    21:00 +11°C° 0 mm 1 mps 692 mmHg 84%
    22:00 +10°C° 0 mm 1 mps 692 mmHg 86%
    23:00 +10°C° 0 mm 1 mps 692 mmHg 88%
    Show more